This is the latest recevied weather packets stored in our database for station/object W5DRO-13. If no packets are shown the sender has not sent any weather packets the latest 10 day(s).
| Time | Temp. | Humidity | Pressure | Rain* | Wind** | Luminosity | Snow |
|---|---|---|---|---|---|---|---|
| 1777584479 | 21.11° C | 38% | 1016 hPa | 0 mm | - | - | - |
| 1777584176 | 21.67° C | 35% | 1016.3 hPa | 0 mm | - | - | - |
| 1777583875 | 21.67° C | 38% | 1016.2 hPa | 0 mm | - | - | - |
| 1777583571 | 21.11° C | 36% | 1016.5 hPa | 0 mm | - | - | - |
| 1777583270 | 21.67° C | 37% | 1016.6 hPa | 0 mm | - | - | - |
| 1777582970 | 21.67° C | 38% | 1016.6 hPa | 0 mm | - | - | - |
| 1777582668 | 22.22° C | 36% | 1016.6 hPa | 0 mm | - | - | - |
| 1777582363 | 21.67° C | 34% | 1016.7 hPa | 0 mm | - | - | - |
| 1777582061 | 21.67° C | 37% | 1016.6 hPa | 0 mm | - | - | - |
| 1777581756 | 21.67° C | 37% | 1016.6 hPa | 0 mm | - | - | - |
| 1777581455 | 21.67° C | 34% | 1017 hPa | 0 mm | - | - | - |
| 1777581150 | 21.67° C | 36% | 1016.9 hPa | 0 mm | - | - | - |
| 1777580845 | 22.22° C | 39% | 1017 hPa | 0 mm | - | - | - |
| 1777580540 | 21.67° C | 39% | 1017 hPa | 0 mm | - | - | - |
| 1777580236 | 21.67° C | 36% | 1017.2 hPa | 0 mm | - | - | - |
| 1777579934 | 21.67° C | 36% | 1017 hPa | 0 mm | - | - | - |
| 1777579628 | 21.67° C | 37% | 1016.9 hPa | 0 mm | - | - | - |
| 1777579327 | 21.11° C | 40% | 1017.3 hPa | 0 mm | - | - | - |
| 1777579023 | 21.67° C | 37% | 1017.2 hPa | 0 mm | - | - | - |
| 1777578718 | 21.11° C | 40% | 1017.5 hPa | 0 mm | - | - | - |
| 1777578418 | 21.67° C | 35% | 1017.5 hPa | 0 mm | - | - | - |
| 1777578113 | 21.67° C | 41% | 1017.4 hPa | 0 mm | - | - | - |
| 1777577810 | 21.67° C | 39% | 1017.5 hPa | 0 mm | - | - | - |
| 1777577505 | 21.11° C | 39% | 1017.6 hPa | 0 mm | - | - | - |
| 1777577202 | 20° C | 45% | 1017.8 hPa | 0 mm | - | - | - |
* Rain latest hour (hover to see other rain measurements)
** Current wind speed in m/s (hover to see current wind gust speed)